This is the latest recevied weather packets stored in our database for station/object DH0GMA. If no packets are shown the sender has not sent any weather packets the latest 10 day(s).
| Time | Temp. | Humidity | Pressure | Rain* | Wind** | Luminosity | Snow |
|---|---|---|---|---|---|---|---|
| 1778007388 | 15.56° C | 73% | 1007.1 hPa | 0 mm | - | - | - |
| 1778006788 | 15.56° C | 72% | 1007.1 hPa | 0 mm | - | - | - |
| 1778006188 | 16.11° C | 71% | 1007 hPa | 0 mm | - | - | - |
| 1778005588 | 16.11° C | 70% | 1007 hPa | 0 mm | - | - | - |
| 1778004988 | 16.11° C | 70% | 1006.9 hPa | 0 mm | - | - | - |
| 1778004388 | 16.67° C | 70% | 1006.7 hPa | 0 mm | - | - | - |
| 1778003788 | 16.67° C | 69% | 1006.6 hPa | 0 mm | - | - | - |
| 1778003187 | 16.67° C | 68% | 1006.6 hPa | 0 mm | - | - | - |
| 1778002587 | 16.67° C | 67% | 1006.6 hPa | 0 mm | - | - | - |
| 1778001987 | 16.67° C | 67% | 1006.5 hPa | 0 mm | - | - | - |
| 1778001387 | 16.67° C | 67% | 1006.5 hPa | 0 mm | - | - | - |
| 1778000787 | 17.22° C | 67% | 1006.4 hPa | 0 mm | - | - | - |
| 1778000188 | 17.78° C | 65% | 1006.3 hPa | 0 mm | - | - | - |
| 1777999588 | 17.78° C | 64% | 1006.3 hPa | 0 mm | - | - | - |
| 1777998987 | 17.78° C | 63% | 1006.2 hPa | 0 mm | - | - | - |
| 1777998387 | 18.33° C | 64% | 1006.1 hPa | 0 mm | - | - | - |
| 1777997787 | 18.33° C | 65% | 1006.3 hPa | 0 mm | - | - | - |
| 1777997187 | 17.22° C | 68% | 1006.4 hPa | 0 mm | - | - | - |
| 1777996587 | 17.22° C | 67% | 1006.3 hPa | 0 mm | - | - | - |
| 1777995987 | 17.22° C | 68% | 1006.4 hPa | 0 mm | - | - | - |
| 1777995387 | 17.22° C | 68% | 1006.6 hPa | 0 mm | - | - | - |
| 1777994787 | 17.78° C | 68% | 1006.5 hPa | 0 mm | - | - | - |
| 1777994187 | 17.78° C | 67% | 1006.4 hPa | 0.25 mm | - | - | - |
| 1777993587 | 17.78° C | 69% | 1006.3 hPa | 1.52 mm | - | - | - |
| 1777992987 | 17.78° C | 69% | 1006.5 hPa | 1.52 mm | - | - | - |
* Rain latest hour (hover to see other rain measurements)
** Current wind speed in m/s (hover to see current wind gust speed)